www.pogodaiklimat.ru

Погода и климат >> Архив погоды >> Норвегия >> Банак


ПОГОДА в Банаке

  • Прогноз погоды в Банаке
  • Монитор погоды в Банаке

АРХИВ ПОГОДЫ в Банаке

Время (UTC), дата Ветер
(напр.,м/с)
 
Видим.   Явления Облачность Т
(С)
Тd
(С)
f
(%)
Тe
(С)
Тes
(С)
Комфортность P
(гПа)
Po
(гПа)
Тmin
(С)
Tmax
(С)
R
(мм)
R24
(мм)
S
(см)
04 19.03 ЮВ 1
{4}
н/о н/о -4.1 -5.2 92 -7 -7 1009.8 1008.8
05 19.03 Ю 2
{3}
н/о н/о -3.5 -5.0 89 -8 -8 1010.6 1009.6
06 19.03 Ю 2
{4}
н/о н/о -2.9 -4.8 87 -7 -7 1010.7 1009.8 -4.8 -2.5
07 19.03 Ю 2
{3}
н/о н/о -1.9 -4.7 81 -6 -6 1010.9 1010.0
08 19.03 ЮВ 2
{3}
н/о н/о -0.9 -4.6 76 -4 -4 1011.0 1010.0
09 19.03 В 3
{3}
н/о н/о -0.8 -4.5 76 -5 -5 1011.3 1010.4
10 19.03 В 2
{3}
н/о н/о -0.2 -4.8 71 -4 -4 1011.6 1010.7
11 19.03 ЮВ 3
{4}
н/о н/о +0.1 -5.5 66 -4 -4 1011.6 1010.6
12 19.03 ЮВ 2
{5}
н/о н/о +1.2 -5.9 59 -2 -2 1011.9 1011.0
13 19.03 ЮВ 2
{4}
н/о н/о +0.6 -5.8 62 -2 -2 1011.8 1010.8
14 19.03 ЮВ 3
{4}
н/о н/о +0.5 -5.9 62 -4 -4 1011.7 1010.7
15 19.03 ЮВ 4
{6}
н/о н/о +0.6 -6.2 60 -4 -4 1011.7 1010.8
16 19.03 ЮВ 4
{5}
н/о н/о -1.9 -7.1 68 -7 -7 1011.7 1010.7
17 19.03 ЮВ 3
{6}
н/о н/о -2.1 -7.5 66 -7 -7 1011.5 1010.5
18 19.03 ЮВ 4
{6}
н/о н/о -3.6 -8.8 67 -9 -9 1010.7 1009.8 -3.8 +1.5
19 19.03 ЮВ 4
{7}
н/о н/о -3.8 -9.1 67 -10 -10 1010.5 1009.5
20 19.03 Ю 6
{8}
н/о н/о -4.1 -9.4 67 -11 -11 1010.0 1009.0
21 19.03 Ю 6
{8}
н/о н/о -5.0 -9.9 68 -12 -12 1009.5 1008.5
22 19.03 Ю 8
{10}
н/о н/о -5.6 -10.3 69 -14 -14 1008.9 1008.0
23 19.03 Ю 9
{11}
н/о н/о -5.5 -10.4 68 -15 -15 1008.1 1007.1
00 20.03 Ю 9
{13}
н/о н/о -5.4 -10.2 69 -14 -14 1007.2 1006.2
01 20.03 Ю 10
{13}
н/о н/о -5.5 -10.3 69 -15 -15 1006.1 1005.1
02 20.03 ЮВ 9
{13}
н/о н/о -6.0 -10.7 69 -15 -15 1005.3 1004.3
03 20.03 Ю 11
{14}
н/о н/о -7.0 -11.4 71 -17 -17 1004.4 1003.4
04 20.03 Ю 9
{14}
н/о н/о -7.8 -12.0 72 -17 -17 1003.7 1002.7
05 20.03 Ю 9
{11}
н/о н/о -7.9 -12.1 72 -18 -18 1002.3 1001.3
06 20.03 Ю 9
{14}
н/о н/о -7.2 -11.9 69 -17 -17 1001.0 1000.0 -8.2 -3.6
07 20.03 Ю 10
{13}
н/о н/о -5.7 -11.3 65 -15 -15 1000.4 999.4
08 20.03 Ю 10
{13}
н/о н/о -3.6 -10.1 61 -12 -12 999.7 998.7
09 20.03 ЮВ 11
{16}
н/о н/о -3.0 -9.3 62 -12 -12 999.4 998.4
10 20.03 Ю 13
{18}
н/о н/о -2.1 -6.5 72 -12 -12 999.3 998.3
11 20.03 Ю 10
{17}
н/о н/о -2.0 -5.4 78 -11 -11 999.3 998.3
12 20.03 Ю 9
{18}
н/о н/о -1.9 -4.4 83 -10 -10 999.3 998.3
13 20.03 Ю 7
{12}
н/о н/о -1.3 -4.2 81 -9 -9 999.4 998.4
14 20.03 Ю 6
{10}
н/о н/о -1.2 -4.5 78 -8 -8 999.8 998.9
15 20.03 Ю 6
{7}
н/о н/о -1.4 -3.6 85 -8 -8 1000.1 999.2
16 20.03 Ю 5
{7}
н/о н/о -1.5 -3.3 88 -8 -8 1000.3 999.4
17 20.03 Ю 6
{8}
н/о н/о -1.7 -3.9 85 -9 -9 1000.2 999.3
18 20.03 ЮВ 5
{12}
н/о н/о -1.8 -4.3 83 -8 -8 1000.1 999.1 -7.1 -0.8
19 20.03 Ю 7
{8}
н/о н/о -2.1 -4.6 83 -10 -10 1000.1 999.2
20 20.03 Ю 7
{9}
н/о н/о -2.7 -5.5 81 -10 -10 1000.3 999.3
21 20.03 Ю 6
{10}
н/о н/о -3.5 -6.3 81 -11 -11 1000.5 999.5
22 20.03 ЮВ 6
{8}
н/о н/о -4.3 -6.9 82 -12 -12 1000.7 999.8
23 20.03 ЮВ 7
{10}
н/о н/о -4.5 -7.1 82 -13 -13 1000.9 999.9
00 21.03 ЮВ 6
{10}
н/о н/о -5.6 -7.9 84 -13 -13 1000.7 999.7
01 21.03 ЮВ 7
{9}
н/о н/о -4.9 -7.8 80 -13 -13 1000.5 999.5
02 21.03 Ю 7
{9}
н/о н/о -4.9 -7.9 79 -13 -13 1000.1 999.2
03 21.03 Ю 8
{13}
н/о н/о -4.8 -8.0 78 -13 -13 999.9 999.0
04 21.03 Ю 8
{11}
н/о н/о -5.3 -8.2 80 -14 -14 999.8 998.8
05 21.03 Ю 9
{11}
н/о н/о -5.4 -8.4 79 -15 -15 999.2 998.3
06 21.03 Ю 7
{13}
н/о н/о -5.0 -8.5 76 -13 -13 999.4 998.5 -5.7 -1.8
07 21.03 Ю 7
{11}
н/о н/о -4.3 -8.4 73 -12 -12 998.8 997.8
08 21.03 Ю 7
{11}
н/о н/о -3.2 -8.0 69 -11 -11 998.5 997.6
09 21.03 Ю 6
{9}
н/о н/о -3.5 -8.0 71 -11 -11 998.7 997.8
10 21.03 Ю 6
{10}
н/о н/о -1.8 -7.6 65 -8 -8 998.3 997.3
11 21.03 Ю 8
{12}
н/о н/о -0.9 -7.1 63 -8 -8 998.0 997.1
12 21.03 Ю 6
{12}
н/о н/о -0.4 -6.8 62 -7 -7 997.6 996.7
13 21.03 Ю 8
{10}
н/о н/о -0.2 -6.2 64 -7 -7 997.1 996.1
14 21.03 Ю 5
{9}
н/о н/о -0.4 -6.2 65 -6 -6 996.3 995.4
15 21.03 Ю 4
{8}
н/о н/о -1.1 -6.5 67 -6 -6 996.0 995.1
17 21.03 Ю 6
{7}
н/о н/о -3.0 -7.3 72 -10 -10 996.5 995.6
18 21.03 Ю 6
{10}
н/о н/о -3.8 -7.9 73 -11 -11 997.4 996.4 -5.5 0.0
19 21.03 Ю 5
{8}
н/о н/о -4.2 -7.8 76 -11 -11 998.1 997.2
20 21.03 Ю 4
{7}
н/о н/о -4.5 -7.4 80 -11 -11 999.6 998.7
21 21.03 З 8
{18}
н/о н/о -3.1 -6.5 77 -11 -11 1000.9 999.9
22 21.03 СЗ 13
{21}
н/о н/о +1.1 -5.5 61 -7 -7 1001.9 1000.9
23 21.03 СЗ 14
{20}
н/о н/о +1.2 -6.8 55 -7 -7 1003.0 1002.0
01 22.03 З 8
{14}
н/о н/о 0.0 -5.1 68 -7 -7 1006.0 1005.0
02 22.03 В 2
{10}
н/о н/о -1.9 -4.1 85 -6 -6 1007.2 1006.2
03 22.03 ЮЗ 5
{9}
н/о н/о -2.7 -5.3 82 -9 -9 1007.6 1006.7
04 22.03 Ю 3
{10}
н/о н/о -4.4 -7.6 78 -10 -10 1008.3 1007.3
05 22.03 ЮЗ 5
{10}
н/о н/о -0.4 -5.2 70 -6 -6 1008.3 1007.4
06 22.03 Ю 7
{14}
н/о н/о -1.2 -6.6 67 -8 -8 1009.1 1008.2 -4.8 +1.5
07 22.03 Ю 6
{10}
н/о н/о -0.8 -7.2 62 -7 -7 1009.6 1008.6
08 22.03 Ю 8
{10}
н/о н/о +0.5 -6.8 58 -6 -6 1010.3 1009.4
09 22.03 ЮЗ 9
{13}
н/о н/о +1.7 -5.9 57 -5 -5 1010.4 1009.4
10 22.03 ЮЗ 9
{18}
н/о н/о +2.4 -5.9 54 -4 -4 1010.7 1009.8
11 22.03 Ю 8
{13}
н/о н/о +2.6 -5.7 54 -3 -3 1010.5 1009.5
12 22.03 Ю 7
{18}
н/о н/о +2.7 -5.9 53 -3 -3 1010.5 1009.6
13 22.03 Ю 8
{13}
н/о н/о +2.4 -5.4 56 -4 -4 1010.0 1009.0
14 22.03 ЮЗ 11
{14}
н/о н/о +2.0 -5.4 58 -5 -5 1009.9 1008.9
15 22.03 ЮЗ 9
{15}
н/о н/о +1.7 -6.1 56 -5 -5 1009.4 1008.4
16 22.03 ЮЗ 10
{17}
н/о н/о +1.0 -7.0 55 -6 -6 1008.4 1007.5
17 22.03 Ю 11
{19}
н/о н/о +0.7 -8.0 52 -7 -7 1006.9 1005.9
18 22.03 Ю 13
{19}
н/о н/о +1.2 -8.0 50 -7 -7 1005.2 1004.3 -1.4 +2.9
19 22.03 Ю 11
{18}
н/о н/о +0.5 -8.4 51 -7 -7 1003.3 1002.4
20 22.03 ЮВ 12
{17}
н/о н/о +0.7 -7.7 53 -7 -7 1001.8 1000.9
21 22.03 Ю 11
{17}
н/о н/о +0.6 -7.1 56 -7 -7 999.0 998.1
22 22.03 Ю 14
{21}
н/о н/о -0.4 -3.7 78 -10 -10 996.6 995.6
23 22.03 Ю 12
{19}
н/о н/о +1.0 -5.4 62 -7 -7 995.2 994.2
00 23.03 Ю 16
{22}
н/о н/о +0.7 -4.7 67 -8 -8 992.7 991.8
01 23.03 Ю 15
{23}
н/о н/о +0.9 -3.0 75 -8 -8 992.1 991.1
02 23.03 Ю 14
{20}
н/о н/о +1.3 -2.8 74 -7 -7 990.9 990.0
03 23.03 Ю 11
{17}
н/о н/о +1.8 -2.1 75 -6 -6 989.9 989.0
04 23.03 Ю 11
{16}
н/о н/о +2.4 -2.3 71 -5 -5 988.9 988.0
05 23.03 Ю 11
{15}
н/о н/о +2.5 -2.2 71 -5 -5 988.3 987.4
06 23.03 Ю 6
{23}
н/о н/о +2.8 -2.3 69 -3 -3 986.6 985.7 -0.5 +3.3
07 23.03 ЮВ 9
{16}
н/о н/о +2.7 -1.8 72 -4 -4 986.1 985.1
08 23.03 Ю 7
{11}
н/о н/о +2.4 -1.6 75 -4 -4 984.6 983.7
09 23.03 ЮВ 9
{15}
н/о н/о +2.6 -1.5 74 -4 -4 984.5 983.5
10 23.03 ЮВ 3
{10}
н/о н/о +3.5 -1.8 68 0 0 983.8 982.8
11 23.03 Ю 5
{12}
н/о н/о +3.8 -1.9 66 -1 -1 981.9 981.0
12 23.03 ЮВ 8
{16}
н/о н/о +4.7 -1.9 62 -1 -1 981.5 980.6
13 23.03 Ю 5
{9}
н/о н/о +4.9 -2.4 59 +1 +1 980.8 979.9
14 23.03 ЮВ 5
{10}
н/о н/о +5.1 -2.9 56 +1 +1 980.6 979.6
15 23.03 Ю 6
{8}
н/о н/о +5.5 -3.0 54 +1 +1 980.2 979.2
16 23.03 ЮВ 4
{7}
н/о н/о +3.8 -3.0 61 -0 -0 979.5 978.6
17 23.03 Ю 2
{5}
н/о н/о +2.2 -2.7 70 -1 -1 979.4 978.5
18 23.03 Ю 3
{10}
н/о н/о +0.6 -3.1 76 -4 -4 979.3 978.4 +0.6 +5.8
19 23.03 ЮВ 3
{4}
н/о н/о +0.1 -4.1 73 -4 -4 978.6 977.7
20 23.03 Ю 4
{5}
н/о н/о -0.5 -4.6 74 -6 -6 978.0 977.0
21 23.03 ЮВ 1
{7}
н/о н/о 0.0 -4.6 71 -2 -2 977.5 976.6
22 23.03 В 5
{7}
н/о н/о +0.5 -6.1 61 -5 -5 976.8 975.9
23 23.03 Ю 6
{8}
н/о н/о -0.2 -5.7 66 -6 -6 976.8 975.9
00 24.03 Ю 5
{8}
н/о н/о -2.0 -6.4 72 -8 -8 976.6 975.7
01 24.03 Ю 5
{7}
н/о н/о -2.2 -6.6 72 -9 -9 976.6 975.7
02 24.03 Ю 5
{6}
н/о н/о -2.7 -6.9 73 -9 -9 976.9 975.9
03 24.03 Ю 5
{6}
н/о н/о -2.8 -7.0 73 -9 -9 977.1 976.2
04 24.03 ЮВ 4
{6}
н/о н/о -3.4 -7.1 76 -9 -9 977.8 976.9
05 24.03 Ю 3
{5}
н/о н/о -3.6 -7.3 75 -9 -9 978.6 977.6
06 24.03 штиль 0
{7}
н/о н/о -2.3 -7.2 69 -3 -3 979.5 978.6 -4.0 +1.3
07 24.03 штиль 0
{2}
н/о н/о -1.2 -6.6 67 -2 -2 980.5 979.5
08 24.03 штиль 0
{2}
н/о н/о +0.7 -6.6 58 0 0 981.6 980.7
09 24.03 В 2
{3}
н/о н/о +0.7 -6.4 59 -2 -2 982.6 981.6
10 24.03 В 2
{3}
н/о н/о +1.9 -5.9 56 -1 -1 983.6 982.6
11 24.03 В 3
{4}
н/о н/о +2.3 -5.5 56 -1 -1 984.6 983.6
12 24.03 В 2
{4}
н/о н/о +2.6 -5.0 57 0 0 985.5 984.6
13 24.03 ЮВ 2
{5}
н/о н/о +3.0 -4.9 56 +1 +1 986.4 985.4
14 24.03 В 2
{4}
н/о н/о +3.4 -4.3 57 +1 +1 987.0 986.1
15 24.03 ЮВ 3
{5}
н/о н/о +2.3 -3.8 64 -1 -1 988.0 987.1
16 24.03 З 7
{11}
н/о н/о +1.1 -0.5 89 -6 -6 989.6 988.6
17 24.03 СЗ 10
{13}
н/о н/о +1.2 -1.5 82 -7 -7 991.0 990.1
18 24.03 СЗ 9
{14}
н/о н/о +0.7 -2.0 82 -7 -7 992.5 991.6 -4.0 +4.4
19 24.03 СЗ 10
{13}
н/о н/о -0.2 -2.6 84 -8 -8 993.6 992.7
20 24.03 СЗ 8
{12}
н/о н/о -0.9 -3.1 85 -9 -9 995.2 994.3
21 24.03 С 6
{11}
н/о н/о -1.4 -4.2 81 -8 -8 996.4 995.4
22 24.03 СЗ 9
{12}
н/о н/о -2.1 -5.2 79 -10 -10 997.7 996.8
23 24.03 СЗ 8
{11}
н/о н/о -2.5 -5.4 80 -11 -11 999.0 998.1
00 25.03 С 6
{13}
н/о н/о -3.5 -4.9 90 -11 -11 999.7 998.8
01 25.03 СЗ 6
{9}
н/о н/о -3.3 -7.3 74 -11 -11 1000.4 999.4
02 25.03 З 9
{11}
н/о н/о -3.0 -7.8 69 -11 -11 1000.8 999.8
03 25.03 З 8
{9}
н/о н/о -2.8 -7.8 68 -11 -11 1001.3 1000.4
04 25.03 З 8
{10}
н/о н/о -3.7 -8.5 69 -12 -12 1001.7 1000.7
05 25.03 З 5
{9}
н/о н/о -3.8 -7.9 73 -11 -11 1002.2 1001.2
06 25.03 В 5
{11}
н/о н/о -3.5 -7.8 72 -10 -10 1002.5 1001.6 -4.4 +0.7
07 25.03 ЮВ 4
{6}
н/о н/о -1.7 -7.3 66 -7 -7 1002.6 1001.7
08 25.03 З 4
{6}
н/о н/о +0.1 -10.1 46 -5 -5 1002.4 1001.4
09 25.03 Ю 3
{5}
н/о н/о +1.2 -10.5 41 -2 -2 1002.8 1001.8
10 25.03 ЮВ 3
{6}
н/о н/о +0.4 -9.8 46 -3 -3 1002.6 1001.7
11 25.03 ЮВ 5
{9}
н/о н/о +0.8 -9.4 46 -4 -4 1002.8 1001.9
12 25.03 Ю 5
{9}
н/о н/о +0.8 -9.7 45 -4 -4 1002.6 1001.6
13 25.03 Ю 5
{8}
н/о н/о +0.7 -10.1 44 -4 -4 1002.4 1001.4
14 25.03 ЮВ 5
{7}
н/о н/о -1.1 -9.0 55 -7 -7 1002.4 1001.4
15 25.03 В 3
{5}
н/о н/о -1.0 -8.9 55 -5 -5 1002.5 1001.5
16 25.03 ЮВ 2
{4}
н/о н/о -2.6 -9.1 61 -6 -6 1002.9 1001.9
17 25.03 Ю 3
{7}
н/о н/о -1.8 -6.7 69 -6 -6 1002.9 1001.9
18 25.03 З 7
{10}
н/о н/о -1.3 -5.7 72 -8 -8 1002.8 1001.9 -3.6 +1.8
19 25.03 З 8
{12}
н/о н/о -1.4 -6.0 71 -9 -9 1003.5 1002.6
20 25.03 З 6
{12}
н/о н/о -1.6 -5.6 74 -8 -8 1004.4 1003.4
21 25.03 З 7
{10}
н/о н/о -2.0 -6.0 74 -9 -9 1004.5 1003.5
22 25.03 З 8
{11}
н/о н/о -2.3 -7.0 70 -10 -10 1005.1 1004.2
23 25.03 З 6
{10}
н/о н/о -3.9 -7.4 77 -11 -11 1005.5 1004.5
00 26.03 З 8
{12}
н/о н/о -2.1 -7.5 66 -10 -10 1005.5 1004.5
01 26.03 З 9
{12}
н/о н/о -2.1 -6.3 73 -10 -10 1005.9 1004.9
02 26.03 З 9
{13}
н/о н/о -1.9 -5.9 74 -10 -10 1006.2 1005.3
03 26.03 З 8
{12}
н/о н/о -1.8 -5.8 74 -10 -10 1007.0 1006.0
04 26.03 З 8
{11}
н/о н/о -1.9 -6.4 71 -10 -10 1007.4 1006.4
05 26.03 З 9
{11}
н/о н/о -1.7 -5.9 73 -10 -10 1007.6 1006.6

 

Местоположение метеостанции Банак (Норвегия): широта 70.06 долгота 24.99 высота над уровнем моря 5 м.

В архиве по умолчанию представлена погода в Банаке за последнюю неделю. Архивные данные за месяц целиком и за предыдущие месяцы, начиная с января 2011 года, Вы можете получить, выбрав интересующий диапазон дат из раскрывающегося списка и нажав кнопку "Ввод!".


*Определитесь, кто Вы:
робот инопланетянин человек

Внимание! Время в таблицах - всемирное. Для получения местного времени необходимо прибавить поправку, которая равна 1 ч.

Смотрите также архив погоды в соседних городах и на ближайших метеорологических станциях:

Погода в Карасйоке (Норвегия) (59 км)
Погода в Альта аэропорту (Норвегия) (63 км)
Погода в Суоловуопми-Лулит (Норвегия) (77 км)
Погода в Суовддатмохкки (Норвегия) (80 км)
Погода в Утсйоки Кево (Финляндия) (84 км)
Погода в Утсёки Кево Кеволярви (Финляндия) (84 км)
Погода в Искорасе (Норвегия) (86 км)
Погода в Рогнсундете (Норвегия) (90 км)
Погода в Хаммерфест аэропорту (Норвегия) (92 км)
Погода в Утсйоки Нуоргам (Финляндия) (110 км)

Пояснения к столбцам:

Ветер - указаны скорость ветра в м/с - средняя за 10 мин, порывы в срок и между сроками (в фигурных скобках) и направление, откуда дует ветер: С - северный, СВ - северо-восточный, В - восточный, ЮВ - юго-восточный, Ю - южный, ЮЗ - юго-западный, З - западный, СЗ - северо-западный.
Видимость - горизонтальная дальность видимости в метрах или километрах. При видимости от 1 до 10 км при отсутствии осадков обычно наблюдается дымка, при ухудшении видимости до 1 км и менее - туман. В сухую погоду видимость может ухудшаться дымом, пылью или мглою.
Явления - указаны атмосферные явления, наблюдавшиеся в срок или в последний час перед сроком; фигурными скобками обозначены явления, наблюдавшиеся между сроками (за 1-3 часа до срока); квадратными скобками обозначены град или гололедные отложения с указанием их диаметра в мм.
Облачность - указаны через наклонную черту общая и нижняя облачность в баллах и высота нижней границы облаков в метрах; квадратными скобками обозначены формы облаков: Ci - перистые, Cs - перисто-слоистые, Cc - перисто-кучевые, Ac - высококучевые, As - высокослоистые, Sc - слоисто-кучевые, Ns - слоисто-дождевые, Cu - кучевые, Cb - кучево-дождевые. Подробнее классификацию облаков см. в Атласе облаков (PDF).
T - Температура воздуха - температура, измеренная на высоте 2 м над землей.
Td - Температура точки росы - температура, при понижении до которой содержащийся в воздухе водяной пар достигнет насыщения.
f - Относительная влажность воздуха - влажноcть воздуха, измеренная на высоте 2 м над землей.
Te - Эффективная температура - температура, которую ощущает одетый по сезону человек в тени. Характеристика душности погоды. При расчете учитывается влияние влажности воздуха и скорости ветра на теплоощущения человека.
Tes - Эффективная температура на солнце - температура, которую ощущает человек, с поправкой на солнечный нагрев. Характеристика знойности погоды. Зависит от высоты солнца над горизонтом, облачности и скорости ветра. Ночью, в пасмурную погоду, а также при ветре 12 м/с и более поправка равна нулю.
P - Атмосферное давление - приведенное к уровню моря атмосферное давление.
Po - Атмосферное давление - измеренное на уровне метеостанции атмосферное давление.
Tmin - Минимальная температура - минимум температуры воздуха на высоте 2 м над землей.
Tmax - Максимальная температура - максимум температуры воздуха на высоте 2 м над землей.
R - Количество осадков - Количество выпавших осадков за период времени, мм. При наведении курсора мыши на число - период времени, за который выпало указанное количество осадков.
R24 - Количество осадков - Количество выпавших осадков за 24 часа, мм.
S - Снежный покров - Высота снежного покрова, см. При наведении курсора мыши на число - состояние снежного покрова и степень покрытия местности в баллах.